[[{"header":{"parameterUnit":"m.s-1","parameterCategory":1,"la1":30.2991,"la2":30.254,"lo1":-89.0895,"lo2":-89.0444,"dy":0.0017,"dx":0.0017,"nx":28,"ny":28,"refTime":"2024-04-28T09:00:00:Z","depth":0,"parameterNumber":2,"parameterNumberName":"U-component_of_WINDS"},"data":[0,0,0,0,0,0,0,0,0,0,0,0,0,0,0,0,0,0,0,0,0,0,0,0,0,0,0,0,0,0,0,0,0,0,0,0,0,0,0,0,0,0,0,0,0,0,0,0,0,0,0,0,0,0,0,0,0,0,-2.4461,-2.4463,0,-2.4632,-2.4634,-2.4636,-2.4684,-2.4683,-2.4683,-2.4682,-2.4866,-2.4872,-2.4878,0,0,0,0,0,0,0,0,0,0,0,0,0,-2.419,-2.4194,-2.4461,-2.4463,-2.4465,-2.4631,-2.4634,-2.4636,-2.4685,-2.4683,-2.4682,-2.4681,-2.4864,-2.4871,-2.4878,0,0,0,0,0,0,0,0,0,0,0,0,0,-2.4329,-2.4196,-2.4461,-2.4509,-2.4515,-2.4631,-2.4634,-2.4637,-2.4685,-2.4683,-2.4682,-2.4681,-2.4862,-2.487,-2.4879,-2.4962,0,0,-2.4906,-2.4909,0,0,0,0,0,0,0,0,-2.4321,-2.4339,-2.45,-2.4506,-2.4513,-2.4635,-2.4606,-2.4746,-2.4685,-2.4621,-2.4682,-2.468,-2.4791,-2.4806,-2.4841,-2.497,-2.4978,-2.4906,-2.4912,-2.4915,-2.4918,0,0,0,0,0,0,0,-2.4311,-2.4332,-2.4529,-2.4502,-2.451,-2.4527,-2.4545,-2.4633,-2.4712,-2.4626,-2.463,-2.4649,-2.4795,-2.4832,-2.4846,-2.4981,-2.4906,-2.4914,-2.4919,-2.4923,-2.5191,-2.5193,0,0,0,0,0,0,-2.4292,-2.4323,-2.4523,-2.4534,-2.4411,-2.4533,-2.4553,-2.4598,-2.4711,-2.4727,-2.465,-2.4651,-2.4818,-2.4836,-2.4852,-2.4959,-2.4915,-2.4924,-2.4929,-2.5189,-2.5192,-2.5194,0,0,0,0,0,0,-2.4286,-2.4309,-2.4517,-2.443,-2.4457,-2.4539,-2.4589,-2.4602,-2.4639,-2.4729,-2.4745,-2.4673,-2.4818,-2.484,-2.4934,-2.4966,-2.4927,-2.4935,-2.5187,-2.519,-2.5193,-2.517,0,0,0,0,0,0,-2.4277,-2.4306,-2.4335,-2.443,-2.4462,-2.4592,-2.459,-2.4606,-2.4653,-2.4656,-2.4755,-2.4771,-2.4818,-2.4921,-2.4943,-2.4977,-2.4942,-2.5185,-2.5189,-2.5192,-2.5168,-2.5171,-2.5174,0,0,0,0,0,-2.4268,-2.4323,-2.4336,-2.436,-2.4499,-2.4593,-2.4612,-2.4663,-2.4655,-2.4688,-2.4746,-2.4767,-2.4959,-2.493,-2.4955,-2.4992,-2.5183,-2.5187,-2.5192,-2.5167,-2.5171,-2.5174,0,0,0,0,0,0,-2.4233,-2.4336,-2.4352,-2.4439,-2.4507,-2.4601,-2.4642,-2.4665,-2.4739,-2.4738,-2.4802,-2.4824,-2.4914,-2.4964,-2.493,-2.5081,-2.5072,-2.5082,-2.5044,-2.5049,-2.5052,-2.5038,-2.4949,0,0,0,0,0,-2.4235,-2.4299,-2.4388,-2.4457,-2.4489,-2.456,-2.4603,-2.4637,-2.4711,-2.474,-2.4805,-2.4879,-2.4957,-2.5006,-2.5082,-2.5176,-2.5201,-2.5215,-2.5218,-2.522,-2.5227,-2.5284,-2.5292,-2.5208,-2.5208,-2.5208,0,0,-2.4241,-2.4305,-2.4342,-2.4451,-2.4507,-2.4576,-2.4584,-2.4656,-2.4709,-2.4752,-2.4844,-2.4895,-2.4983,-2.5078,-2.5123,-2.5121,-2.5257,-2.5225,-2.5226,-2.5233,-2.529,-2.5297,-2.5304,-2.5211,-2.521,-2.521,0,0,-2.4286,-2.434,-2.4404,-2.446,-2.4545,-2.4592,-2.4608,-2.4699,-2.4734,-2.4827,-2.4862,-2.4929,-2.5059,-2.5121,-2.5169,-2.5242,-2.5266,-2.5265,-2.5281,-2.5336,-2.5343,-2.5349,-2.5377,-2.5386,-2.5273,-2.5273,-2.5273,0,-2.4283,-2.4384,-2.4435,-2.4505,-2.4554,-2.4595,-2.4663,-2.4717,-2.4823,-2.4857,-2.4853,-2.502,-2.5082,-2.5193,-2.5211,-2.5249,-2.5271,-2.5253,-2.5337,-2.5344,-2.5351,-2.5378,-2.5388,-2.5272,-2.5272,-2.5272,-2.5272,0,-2.4378,-2.4448,-2.449,-2.4589,-2.4643,-2.4712,-2.4777,-2.4827,-2.4857,-2.4906,-2.5004,-2.5079,-2.5172,-2.5202,-2.5233,-2.5319,-2.5316,-2.5324,-2.5316,-2.5357,-2.5384,-2.5395,-2.5271,-2.5271,-2.5272,-2.5272,0,0,-2.4403,-2.453,-2.4545,-2.4591,-2.4689,-2.4747,-2.482,-2.4909,-2.4951,-2.5024,-2.509,-2.5201,-2.521,-2.5265,-2.5304,-2.5352,-2.5408,-2.5355,-2.5358,-2.5363,-2.5511,-2.5503,-2.5514,-2.5425,-2.5427,-2.5429,-2.5504,0,-2.4461,-2.4588,-2.4638,-2.4744,-2.4812,-2.4854,-2.4919,-2.4988,-2.5037,-2.5105,-2.5162,-2.524,-2.5245,-2.5279,-2.5328,-2.539,-2.5438,-2.5386,-2.5489,-2.5492,-2.5465,-2.5528,-2.552,-2.5587,-2.5514,-2.5516,-2.5517,0,-2.4545,-2.4616,-2.4727,-2.4819,-2.485,-2.4906,-2.4993,-2.5056,-2.5138,-2.5171,-2.5234,-2.5271,-2.5354,-2.5342,-2.546,-2.5423,-2.5469,-2.5507,-2.5511,-2.5522,-2.5506,-2.5542,-2.561,-2.562,-2.5534,-2.5533,-2.5532,0,-2.4553,-2.4678,-2.4761,-2.48,-2.4909,-2.4948,-2.4996,-2.5076,-2.5127,-2.5205,-2.524,-2.5327,-2.5375,-2.5444,-2.5506,-2.5491,-2.5619,-2.5612,-2.5651,-2.565,-2.5675,-2.5673,-2.5752,-2.5705,-2.5705,-2.5705,-2.5704,0,-2.4613,-2.468,-2.4766,-2.4817,-2.4896,-2.4955,-2.5032,-2.5084,-2.5156,-2.5221,-2.5265,-2.5326,-2.5403,-2.5476,-2.5526,-2.5617,-2.5639,-2.567,-2.5683,-2.5666,-2.5662,-2.5697,-2.5694,-2.5707,-2.5707,-2.5706,-2.5706,0,-2.4634,-2.4695,-2.4789,-2.4884,-2.4911,-2.4964,-2.5048,-2.5102,-2.5154,-2.5237,-2.526,-2.5343,-2.5432,-2.55,-2.5615,-2.5649,-2.5746,-2.5759,-2.5717,-2.5723,-2.5759,-2.5755,-2.5863,-2.5881,-2.5822,-2.5822,-2.5823,0,-2.4668,-2.472,-2.4821,-2.4866,-2.4913,-2.4986,-2.5038,-2.5101,-2.5154,-2.5253,-2.5296,-2.5387,-2.5462,-2.5603,-2.5676,-2.5766,-2.5782,-2.5814,-2.5796,-2.5778,-2.5784,-2.5779,-2.5786,-2.5816,-2.5816,-2.5816,-2.5816,0,-2.4722,-2.475,-2.482,-2.4903,-2.4963,-2.5032,-2.5103,-2.5139,-2.5215,-2.5274,-2.5363,-2.5421,-2.5539,-2.563,-2.5728,-2.5783,-2.5814,-2.5822,-2.5836,-2.5819,-2.5793,-2.5809,-2.5723,-2.5819,-2.5818,-2.5818,-2.5818,-2.5818,-2.4751,-2.48,-2.4879,-2.4958,-2.5018,-2.5083,-2.5138,-2.5197,-2.5271,-2.537,-2.5404,-2.5497,-2.5582,-2.5716,-2.5772,-2.5848,-2.585,-2.587,-2.5875,-2.5879,-2.5878,-2.5781,-2.5867,-2.5867,-2.5867,-2.5867,-2.5867,0,-2.4808,-2.4861,-2.4933,-2.5029,-2.5092,-2.5113,-2.5193,-2.5246,-2.5326,-2.5401,-2.5474,-2.5579,-2.5668,-2.5749,-2.5843,-2.5889,-2.5906,-2.5912,-2.5909,-2.5922,-2.5871,-2.5849,-2.5897,-2.5897,-2.5897,-2.5897,-2.5897,-2.5897,-2.4845,-2.4929,-2.4967,-2.5084,-2.5139,-2.5226,-2.5271,-2.5333,-2.5393,-2.5507,-2.558,-2.5631,-2.5711,-2.5811,-2.5896,-2.5918,-2.5951,-2.5953,-2.5979,-2.5929,-2.5925,-2.5921,-2.5902,-2.5959,-2.596,-2.6024,-2.6025,-2.6025]},{"header":{"parameterUnit":"m.s-1","parameterCategory":1,"la1":30.2991,"la2":30.254,"lo1":-89.0895,"lo2":-89.0444,"dy":0.0017,"dx":0.0017,"nx":28,"ny":28,"refTime":"2024-04-28T09:00:00:Z","depth":0,"parameterNumber":3,"parameterNumberName":"V-component_of_WINDS"},"data":[0,0,0,0,0,0,0,0,0,0,0,0,0,0,0,0,0,0,0,0,0,0,0,0,0,0,0,0,0,0,0,0,0,0,0,0,0,0,0,0,0,0,0,0,0,0,0,0,0,0,0,0,0,0,0,0,0,0,4.6271,4.6272,0,4.6365,4.6366,4.6367,4.6365,4.6363,4.6362,4.6361,4.6455,4.6459,4.6462,0,0,0,0,0,0,0,0,0,0,0,0,0,4.6089,4.6092,4.6271,4.6272,4.6273,4.6365,4.6366,4.6367,4.6365,4.6363,4.6362,4.636,4.6454,4.6458,4.6463,0,0,0,0,0,0,0,0,0,0,0,0,0,4.6174,4.6093,4.6271,4.6283,4.6285,4.6364,4.6366,4.6367,4.6365,4.6363,4.6361,4.636,4.6453,4.6458,4.6463,4.6536,0,0,4.648,4.6483,0,0,0,0,0,0,0,0,4.6169,4.618,4.628,4.6283,4.6285,4.6351,4.6336,4.6424,4.6366,4.6335,4.6361,4.6359,4.6422,4.643,4.6452,4.654,4.6544,4.6481,4.6484,4.6487,4.6488,0,0,0,0,0,0,0,4.6163,4.6176,4.6308,4.6282,4.6285,4.6284,4.6294,4.6353,4.6388,4.6337,4.6337,4.6349,4.6423,4.6446,4.6454,4.6545,4.6481,4.6486,4.6489,4.6491,4.6698,4.67,0,0,0,0,0,0,4.6155,4.6172,4.6305,4.6311,4.6221,4.6289,4.63,4.6332,4.6387,4.6394,4.635,4.6348,4.6438,4.6447,4.6457,4.6546,4.6487,4.6492,4.6495,4.6696,4.6699,4.6701,0,0,0,0,0,0,4.6151,4.6167,4.6301,4.6241,4.6258,4.6294,4.633,4.6335,4.6358,4.6397,4.6403,4.6368,4.6437,4.6449,4.6516,4.6549,4.6494,4.6499,4.6693,4.6697,4.67,4.6723,0,0,0,0,0,0,4.6146,4.6165,4.6194,4.6242,4.6262,4.6359,4.6332,4.6338,4.6368,4.6366,4.6415,4.6421,4.6436,4.6508,4.6522,4.6556,4.6504,4.6691,4.6695,4.6699,4.672,4.6727,4.6733,0,0,0,0,0,4.6139,4.6196,4.6195,4.6211,4.6298,4.6361,4.6373,4.6389,4.637,4.6399,4.6424,4.642,4.6543,4.6515,4.653,4.6566,4.6689,4.6694,4.6698,4.6717,4.6725,4.6733,0,0,0,0,0,0,4.615,4.6203,4.6202,4.6276,4.6314,4.6361,4.6397,4.6398,4.6441,4.6438,4.6456,4.6467,4.6534,4.6557,4.6524,4.6639,4.6613,4.6622,4.6622,4.6631,4.6637,4.6631,4.6508,0,0,0,0,0,4.6161,4.6209,4.6252,4.6313,4.6333,4.6362,4.639,4.6399,4.6439,4.6455,4.6485,4.6524,4.6571,4.6602,4.6648,4.6723,4.6733,4.6755,4.6762,4.6767,4.6774,4.6815,4.6826,4.6717,4.6717,4.6717,0,0,4.6185,4.6219,4.6248,4.6317,4.6347,4.6396,4.6375,4.6428,4.6464,4.6463,4.6529,4.6552,4.6596,4.6667,4.67,4.6688,4.6806,4.6773,4.6777,4.6781,4.6821,4.6832,4.6841,4.672,4.672,4.6719,0,0,4.6252,4.6283,4.6338,4.6369,4.6416,4.6435,4.6448,4.6495,4.651,4.6576,4.6577,4.6619,4.6701,4.6732,4.6759,4.6839,4.6836,4.6853,4.6888,4.6928,4.6937,4.6944,4.6973,4.6983,4.686,4.686,4.686,0,4.6275,4.635,4.6366,4.6419,4.6449,4.6451,4.6506,4.6535,4.6595,4.6615,4.6601,4.6703,4.6733,4.6812,4.6831,4.6853,4.6868,4.6848,4.6934,4.6942,4.6949,4.6977,4.6987,4.6861,4.6861,4.6861,4.6861,0,4.6376,4.6427,4.6466,4.6523,4.6558,4.6611,4.6636,4.6668,4.6674,4.6695,4.6762,4.6797,4.6851,4.687,4.6876,4.695,4.6941,4.693,4.6905,4.6961,4.6987,4.6998,4.6864,4.6863,4.6863,4.6862,0,0,4.6454,4.652,4.6534,4.656,4.6612,4.6651,4.6705,4.6758,4.6785,4.6826,4.6871,4.694,4.6931,4.6961,4.697,4.7006,4.7067,4.6991,4.6992,4.7004,4.715,4.7158,4.717,4.7065,4.7067,4.7069,4.7146,0,4.6528,4.6624,4.664,4.6724,4.6772,4.6774,4.682,4.6857,4.6877,4.692,4.6942,4.699,4.6974,4.6992,4.7027,4.7052,4.7096,4.7046,4.7108,4.711,4.7097,4.7184,4.7192,4.7264,4.7157,4.7158,4.716,0,4.6627,4.6671,4.676,4.6805,4.6825,4.6867,4.6916,4.6957,4.6998,4.7011,4.7044,4.705,4.7105,4.7077,4.7153,4.7119,4.7145,4.7161,4.7164,4.717,4.7138,4.7193,4.7287,4.7298,4.7176,4.7174,4.7173,0,4.6676,4.6757,4.682,4.6843,4.6897,4.6926,4.695,4.6989,4.702,4.7062,4.7082,4.7131,4.7157,4.7194,4.7213,4.719,4.7288,4.7261,4.7299,4.7299,4.732,4.7319,4.742,4.7336,4.7336,4.7336,4.7335,0,4.6757,4.6812,4.6843,4.6883,4.6943,4.6961,4.702,4.7043,4.7078,4.7122,4.7126,4.7166,4.7188,4.7231,4.7246,4.7307,4.7319,4.733,4.7333,4.733,4.7329,4.7347,4.7343,4.7339,4.7338,4.7337,4.7337,0,4.6823,4.6846,4.6916,4.6961,4.6973,4.7016,4.7055,4.7093,4.7112,4.7167,4.7181,4.7212,4.7263,4.7285,4.7348,4.7358,4.7428,4.7427,4.7414,4.7416,4.7453,4.7449,4.757,4.7587,4.7491,4.7492,4.7493,0,4.6874,4.6916,4.6965,4.6995,4.702,4.7067,4.7098,4.7117,4.7149,4.7198,4.723,4.7282,4.7324,4.7406,4.7434,4.7482,4.7483,4.7522,4.749,4.7485,4.7484,4.7481,4.7486,4.7528,4.7529,4.7529,4.753,0,4.6962,4.6971,4.7016,4.7065,4.7102,4.7141,4.718,4.7203,4.7228,4.7263,4.7316,4.7349,4.7413,4.7465,4.7514,4.7538,4.7538,4.754,4.7551,4.7549,4.754,4.7545,4.7431,4.7537,4.7536,4.7536,4.7536,4.7535,4.7022,4.7059,4.71,4.715,4.7181,4.7216,4.7254,4.7279,4.7323,4.7377,4.7385,4.7442,4.7481,4.7548,4.7573,4.7617,4.7607,4.7624,4.7628,4.7632,4.7635,4.7532,4.7626,4.7626,4.7626,4.7626,4.7626,0,4.7111,4.7137,4.7183,4.7236,4.7275,4.7272,4.7314,4.7347,4.7397,4.7433,4.7475,4.7535,4.7584,4.7616,4.7665,4.7694,4.7696,4.7707,4.7705,4.7711,4.7641,4.7626,4.7705,4.7705,4.7705,4.7705,4.7705,4.7705,4.7162,4.7225,4.7239,4.7317,4.7343,4.7399,4.7423,4.7455,4.7485,4.7552,4.7593,4.7613,4.7648,4.77,4.7745,4.7752,4.7771,4.7782,4.779,4.7724,4.7716,4.7708,4.7694,4.7786,4.7786,4.7856,4.7857,4.7857]}]]